Terminal Aerodrome Forecast
Issued by NWS

Home | Current Version | Previous Version | Text Only | Print | Product List | Glossary On
Versions: 1 2 3 4 5 6 7 8 9 10 11 12
000
FTUS45 KRIW 292328
TAFWRL
TAF
KWRL 292328Z 3000/3024 18012KT P6SM SCT110 BKN200
     FM300100 23007KT P6SM VCSH BKN080
     FM300800 VRB06KT P6SM SCT100=

USA.gov is the U.S. government's official web portal to all federal, state and local government web resources and services.